Weather Service Report


260 
ASUS42 KRAH 271410
RWRRAH
NORTH CAROLINA WEATHER ROUNDUP
NATIONAL WEATHER SERVICE RALEIGH NC
1000 AM EDT FRI MAY 27 2016

NOTE: "FAIR" INDICATES FEW OR NO CLOUDS BELOW 12,000 FEET WITH NO
SIGNIFICANT WEATHER AND/OR OBSTRUCTIONS TO VISIBILITY.

NCZ001-053-055-056-065-067-271500-
WESTERN NORTH CAROLINA
  
CITY           SKY/WX    TMP DP  RH WIND       PRES   REMARKS
ASHEVILLE      SUNNY     71  61  70 VRB3      30.20S                  
JEFFERSON      MOSUNNY   69  60  73 CALM      30.24R                  
MORGANTON      SUNNY     72  65  78 SW3       30.22R                  
HICKORY        SUNNY     73  65  75 W3        30.17R                  
RUTHERFORDTON  SUNNY     72  66  80 SW3       30.18R                  
MOUNT AIRY     PTSUNNY   73  69  87 CALM      30.18S                  
BOONE          CLOUDY    72  57  60 CALM      30.23S                  
$$
 
NCZ021-022-025-041-071-084-088-271500-
CENTRAL NORTH CAROLINA
  
CITY           SKY/WX    TMP DP  RH WIND       PRES   REMARKS
CHARLOTTE      MOSUNNY   75  59  57 SW7       30.17S                  
GREENSBORO     MOSUNNY   76  61  59 SW10      30.15S                  
WINSTON-SALEM  SUNNY     75  62  64 VRB6      30.17R                  
RALEIGH-DURHAM MOSUNNY   77  62  59 SW9       30.16S                  
FORT BRAGG     SUNNY     78  62  59 VRB6      30.15F                  
FAYETTEVILLE   SUNNY     78  64  61 S7        30.16S                  
BURLINGTON     SUNNY     78  58  49 SW10      30.15S                  
LAURINBURG     MOSUNNY   77  63  61 SW7       30.17S                  
$$
 
NCZ011-015-027-028-043-044-047-080-103-271500-
NORTHEASTERN NORTH CAROLINA
  
CITY           SKY/WX    TMP DP  RH WIND       PRES   REMARKS
ROCKY MT-WILSO SUNNY     78  65  63 SW12      30.16S                  
GREENVILLE     MOSUNNY   79  63  57 SW9       30.18S                  
WASHINGTON     SUNNY     77  62  58 S6        30.17F                  
ELIZABETH CITY SUNNY     78  62  57 SW9       30.16F                  
MANTEO         NOT AVBL                                               
CAPE HATTERAS  SUNNY     79  58  48 S6        30.19F                  
$$
 
NCZ078-087-090-091-093-098-101-271500-
SOUTHEASTERN NORTH CAROLINA
  
CITY           SKY/WX    TMP DP  RH WIND       PRES   REMARKS
LUMBERTON      MOSUNNY   78  64  61 CALM      30.16S                  
GOLDSBORO      MOSUNNY   79  64  59 SW9       30.16S                  
KINSTON        SUNNY     79  61  53 SW5       30.18S                  
KENANSVILLE    SUNNY     77  61  56 CALM      30.18S                  
NEW BERN       SUNNY     79  61  53 SW5       30.19S                  
CHERRY POINT   SUNNY     79  60  52 SE5       30.19S                  
BEAUFORT       SUNNY     78  61  55 VRB6      30.18S                  
JACKSONVILLE   SUNNY     79  62  56 E6        30.17S                  
WILMINGTON     SUNNY     79  60  52 VRB3      30.17S                  
$$

  

Return to Home page


Western Regional Climate Center, wrcc@dri.edu